contact:dominique.lefevre@mio.osupytheas.fr, maurice.libes@osupytheas.fr, didier.mallarino@osupytheas.fr
Project:EMSO http://www.emso-fr.org/EMSO-France
Depth: 2436.0 m
Title:EMSO Ligure Ouest : Data MII capteur AQUADOPP
Date,Latitude,Longitude,X_East,Y_North,Z_Up,Amplitude_X,Amplitude_Y,Amplitude_Z,Batterie,SoundSpeed,Heading,Pitch,Roll,Pressure,TIS,Speed,Direction
, degrees North, degrees East, m.s-1, m.s-1,m.s-1, 1, 1, 1, Volt, m.s-1, degree, degree, degree, dbar, degree_C, m.s-1, degree
2022-04-03T00:04:03,42.805,6.029,-0.053,0.016,0.027,103.0,104.0,102.0,13.3,1505.2,332.4,-0.8,1.8,2470.406,13.28,0.055,286.8
2022-04-03T00:07:03,42.805,6.029,-0.054,0.021,-0.012,106.0,103.0,102.0,13.4,1505.2,325.7,-0.7,1.8,2470.38,13.28,0.057,291.2
2022-04-03T00:10:03,42.805,6.029,-0.032,0.004,-0.001,104.0,104.0,102.0,13.4,1505.2,332.4,-0.8,1.8,2470.433,13.28,0.032,277.1
2022-04-03T00:13:03,42.805,6.029,-0.048,0.006,-0.001,105.0,104.0,102.0,13.3,1505.2,324.7,-0.8,1.8,2470.39,13.28,0.048,277.1
2022-04-03T00:16:03,42.805,6.029,-0.029,0.025,0.001,105.0,106.0,104.0,13.3,1505.2,325.1,-0.8,1.8,2470.414,13.29,0.038,310.8
2022-04-03T00:19:03,42.805,6.029,-0.045,0.0,0.004,104.0,105.0,101.0,13.3,1505.2,323.9,-0.8,1.8,2470.414,13.29,0.045,270.0
2022-04-03T00:22:03,42.805,6.029,-0.055,0.015,-0.025,105.0,105.0,102.0,13.4,1505.2,326.8,-0.7,1.8,2470.405,13.29,0.057,285.3
2022-04-03T00:25:03,42.805,6.029,-0.039,-0.007,0.0,105.0,105.0,103.0,13.4,1505.2,325.5,-0.8,1.8,2470.426,13.29,0.039,259.8
2022-04-03T00:28:03,42.805,6.029,-0.038,0.004,0.0,106.0,104.0,103.0,13.3,1505.2,323.9,-0.8,1.8,2470.401,13.29,0.038,276.0
2022-04-03T00:31:03,42.805,6.029,-0.054,0.012,-0.024,106.0,104.0,102.0,13.3,1505.2,325.5,-0.8,1.8,2470.41,13.29,0.055,282.5
2022-04-03T00:34:03,42.805,6.029,-0.049,0.035,0.028,104.0,105.0,102.0,13.4,1505.2,332.2,-0.8,1.8,2470.441,13.29,0.06,305.5
2022-04-03T00:37:03,42.805,6.029,-0.04,0.023,-0.005,105.0,105.0,105.0,13.4,1505.2,325.7,-0.8,1.9,2470.389,13.29,0.046,299.9
2022-04-03T00:40:03,42.805,6.029,-0.042,0.021,0.005,105.0,105.0,103.0,13.3,1505.2,329.6,-0.7,1.8,2470.403,13.29,0.046,296.6
2022-04-03T00:43:03,42.805,6.029,-0.042,0.0,0.031,105.0,104.0,103.0,13.4,1505.2,324.7,-0.8,1.8,2470.401,13.29,0.042,270.0
2022-04-03T00:46:03,42.805,6.029,-0.034,0.007,0.0,105.0,106.0,102.0,13.3,1505.2,323.4,-0.8,1.9,2470.416,13.29,0.034,281.6
2022-04-03T00:49:03,42.805,6.029,-0.045,0.019,0.007,104.0,105.0,103.0,13.3,1505.2,324.5,-0.7,1.8,2470.386,13.29,0.048,292.9
2022-04-03T00:52:03,42.805,6.029,-0.024,0.023,-0.007,106.0,106.0,104.0,13.3,1505.2,326.4,-0.8,1.8,2470.386,13.29,0.033,313.8
2022-04-03T00:55:03,42.805,6.029,-0.048,0.022,-0.018,104.0,104.0,103.0,13.4,1505.2,327.7,-0.8,1.8,2470.38,13.29,0.052,294.6
2022-04-03T00:58:03,42.805,6.029,-0.051,0.028,0.029,107.0,106.0,101.0,13.4,1505.2,329.2,-0.7,1.8,2470.398,13.29,0.058,298.8
2022-04-03T01:04:03,42.805,6.029,-0.028,0.013,0.042,106.0,106.0,103.0,13.4,1505.2,324.3,-0.7,1.8,2470.349,13.28,0.03,294.9
2022-04-03T01:07:03,42.805,6.029,-0.024,0.019,0.018,105.0,105.0,102.0,13.3,1505.2,325.7,-0.7,1.8,2470.314,13.28,0.03,308.4
2022-04-03T01:10:03,42.805,6.029,-0.051,0.017,0.004,104.0,105.0,102.0,13.3,1505.2,324.8,-0.8,1.8,2470.314,13.29,0.053,288.4
2022-04-03T01:13:03,42.805,6.029,-0.044,0.013,0.0,104.0,106.0,102.0,13.4,1505.2,329.0,-0.8,1.8,2470.293,13.29,0.045,286.5
2022-04-03T01:16:03,42.805,6.029,-0.045,0.023,-0.005,103.0,104.0,102.0,13.4,1505.2,329.2,-0.8,1.8,2470.294,13.29,0.05,297.1
2022-04-03T01:19:03,42.805,6.029,-0.032,0.013,-0.008,105.0,104.0,102.0,13.4,1505.2,330.1,-0.8,1.8,2470.297,13.29,0.034,292.1
2022-04-03T01:22:03,42.805,6.029,-0.019,0.012,0.025,106.0,104.0,102.0,13.3,1505.2,331.3,-0.8,1.8,2470.293,13.29,0.022,302.3
2022-04-03T01:25:03,42.805,6.029,-0.038,0.021,-0.005,104.0,102.0,102.0,13.4,1505.2,327.8,-0.8,1.8,2470.308,13.29,0.043,298.9
2022-04-03T01:28:03,42.805,6.029,-0.038,0.024,-0.003,102.0,105.0,102.0,13.3,1505.2,332.2,-0.8,1.8,2470.29,13.29,0.044,302.3
2022-04-03T01:31:03,42.805,6.029,-0.021,0.0,-0.015,104.0,103.0,102.0,13.4,1505.2,322.4,-0.8,1.8,2470.299,13.29,0.021,270.0
2022-04-03T01:34:03,42.805,6.029,-0.046,0.034,0.033,102.0,103.0,101.0,13.4,1505.2,327.0,-0.7,1.8,2470.284,13.29,0.057,306.5
2022-04-03T01:37:03,42.805,6.029,-0.05,0.027,0.027,103.0,103.0,101.0,13.4,1505.2,325.3,-0.7,1.8,2470.268,13.29,0.056,298.4
2022-04-03T01:40:03,42.805,6.029,-0.019,0.012,0.03,104.0,102.0,102.0,13.4,1505.2,332.2,-0.7,1.8,2470.268,13.29,0.022,302.3
2022-04-03T01:43:03,42.805,6.029,-0.048,0.014,-0.001,103.0,102.0,101.0,13.4,1505.2,328.1,-0.7,1.8,2470.219,13.29,0.05,286.3
2022-04-03T01:46:03,42.805,6.029,-0.052,0.038,0.021,104.0,102.0,100.0,13.3,1505.2,326.6,-0.8,1.9,2470.242,13.29,0.064,306.2
2022-04-03T01:49:03,42.805,6.029,-0.045,0.013,0.014,104.0,103.0,101.0,13.4,1505.2,327.8,-0.8,1.8,2470.256,13.29,0.046,286.1
2022-04-03T01:52:03,42.805,6.029,-0.04,0.018,-0.004,103.0,103.0,101.0,13.4,1505.2,322.3,-0.7,1.8,2470.252,13.29,0.043,294.2
2022-04-03T01:55:03,42.805,6.029,-0.019,0.024,0.033,103.0,100.0,101.0,13.4,1505.2,328.2,-0.7,1.8,2470.253,13.29,0.03,321.6
2022-04-03T01:58:03,42.805,6.029,0.0,-0.002,-0.002,101.0,102.0,101.0,13.4,1505.2,329.1,-0.7,1.8,2470.279,13.29,0.002,180.0
2022-04-03T02:04:03,42.805,6.029,-0.031,0.012,0.0,102.0,103.0,100.0,13.4,1505.2,327.5,-0.8,1.8,2470.251,13.28,0.033,291.2
2022-04-03T02:07:03,42.805,6.029,-0.029,-0.004,-0.014,102.0,102.0,101.0,13.4,1505.2,323.7,-0.8,1.8,2470.203,13.28,0.029,262.2
2022-04-03T02:10:03,42.805,6.029,-0.047,0.016,0.022,101.0,101.0,101.0,13.4,1505.2,330.9,-0.8,1.8,2470.213,13.29,0.049,288.8
2022-04-03T02:13:03,42.805,6.029,-0.024,0.014,0.0,103.0,102.0,101.0,13.4,1505.2,327.6,-0.8,1.8,2470.261,13.29,0.027,300.3
2022-04-03T02:16:03,42.805,6.029,-0.025,0.004,0.002,103.0,103.0,101.0,13.4,1505.2,332.0,-0.8,1.8,2470.235,13.29,0.025,279.1
2022-04-03T02:19:03,42.805,6.029,-0.052,0.013,-0.012,103.0,102.0,101.0,13.4,1505.2,324.1,-0.8,1.8,2470.227,13.29,0.053,284.0
2022-04-03T02:22:03,42.805,6.029,-0.029,0.029,0.027,103.0,102.0,101.0,13.4,1505.2,325.4,-0.7,1.8,2470.237,13.29,0.041,315.0
2022-04-03T02:25:03,42.805,6.029,-0.024,0.017,0.034,103.0,101.0,101.0,13.4,1505.2,324.7,-0.8,1.8,2470.265,13.29,0.029,305.3
2022-04-03T02:28:03,42.805,6.029,-0.033,0.006,0.016,101.0,102.0,101.0,13.3,1505.2,331.8,-0.7,1.8,2470.261,13.29,0.033,280.3
2022-04-03T02:31:03,42.805,6.029,-0.045,0.013,0.015,102.0,103.0,101.0,13.4,1505.2,329.5,-0.7,1.8,2470.256,13.29,0.046,286.1
2022-04-03T02:34:03,42.805,6.029,-0.014,0.006,0.008,102.0,102.0,101.0,13.4,1505.2,323.1,-0.7,1.8,2470.269,13.29,0.015,293.2
2022-04-03T02:37:03,42.805,6.029,-0.034,0.012,-0.012,100.0,104.0,101.0,13.4,1505.2,323.2,-0.8,1.8,2470.249,13.29,0.036,289.4
2022-04-03T02:40:03,42.805,6.029,-0.022,0.013,0.017,103.0,102.0,101.0,13.3,1505.2,329.1,-0.8,1.8,2470.236,13.29,0.025,300.6
2022-04-03T02:43:03,42.805,6.029,-0.047,0.016,0.013,102.0,102.0,101.0,13.3,1505.2,328.9,-0.8,1.8,2470.249,13.29,0.049,288.8
2022-04-03T02:46:03,42.805,6.029,-0.045,0.002,-0.003,102.0,101.0,101.0,13.3,1505.2,329.6,-0.8,1.8,2470.298,13.29,0.045,272.5
2022-04-03T02:49:03,42.805,6.029,-0.046,0.019,0.019,100.0,103.0,101.0,13.4,1505.2,323.6,-0.7,1.8,2470.261,13.29,0.049,292.4
2022-04-03T02:52:03,42.805,6.029,-0.018,0.012,0.004,101.0,103.0,101.0,13.4,1505.2,322.2,-0.8,1.8,2470.277,13.29,0.021,303.7
2022-04-03T02:55:03,42.805,6.029,-0.047,0.029,0.008,102.0,101.0,101.0,13.4,1505.2,329.7,-0.8,1.8,2470.244,13.29,0.055,301.7
2022-04-03T02:58:03,42.805,6.029,-0.046,0.0,0.006,101.0,103.0,100.0,13.4,1505.2,329.0,-0.8,1.8,2470.272,13.29,0.046,270.0
2022-04-03T03:04:03,42.805,6.029,-0.055,0.0,0.004,103.0,102.0,100.0,13.3,1505.2,330.9,-0.7,1.8,2470.322,13.28,0.055,270.0
2022-04-03T03:07:03,42.805,6.029,-0.046,-0.006,0.017,103.0,104.0,102.0,13.4,1505.2,323.6,-0.8,1.8,2470.257,13.28,0.046,262.6
2022-04-03T03:10:03,42.805,6.029,-0.035,0.039,0.024,103.0,103.0,101.0,13.4,1505.2,328.0,-0.8,1.8,2470.252,13.29,0.052,318.1
2022-04-03T03:13:03,42.805,6.029,-0.027,0.006,0.001,105.0,103.0,101.0,13.4,1505.2,323.8,-0.7,1.8,2470.247,13.29,0.027,282.5
2022-04-03T03:16:03,42.805,6.029,-0.042,0.014,0.012,103.0,103.0,102.0,13.4,1505.2,329.4,-0.8,1.8,2470.284,13.29,0.044,288.4
2022-04-03T03:19:03,42.805,6.029,-0.039,0.004,-0.009,104.0,103.0,102.0,13.4,1505.2,330.0,-0.7,1.8,2470.244,13.29,0.039,275.9
2022-04-03T03:22:03,42.805,6.029,-0.042,0.01,-0.005,104.0,104.0,102.0,13.4,1505.2,323.8,-0.7,1.8,2470.264,13.29,0.043,283.4
2022-04-03T03:25:03,42.805,6.029,-0.046,0.011,0.011,103.0,104.0,103.0,13.4,1505.2,329.3,-0.8,1.8,2470.236,13.29,0.047,283.4
2022-04-03T03:28:03,42.805,6.029,-0.042,0.017,0.006,105.0,103.0,102.0,13.3,1505.2,326.7,-0.8,1.8,2470.245,13.29,0.045,292.0
2022-04-03T03:31:03,42.805,6.029,-0.029,0.014,-0.009,103.0,103.0,102.0,13.3,1505.2,329.2,-0.8,1.8,2470.268,13.29,0.032,295.8
2022-04-03T03:34:03,42.805,6.029,-0.026,0.008,0.034,105.0,102.0,102.0,13.4,1505.2,323.2,-0.8,1.8,2470.228,13.29,0.027,287.1
2022-04-03T03:37:03,42.805,6.029,-0.041,0.01,-0.005,104.0,104.0,102.0,13.4,1505.2,322.2,-0.7,1.8,2470.269,13.29,0.042,283.7
2022-04-03T03:40:03,42.805,6.029,-0.05,0.008,0.018,103.0,103.0,102.0,13.4,1505.2,330.6,-0.8,1.8,2470.281,13.29,0.05,279.1
2022-04-03T03:43:03,42.805,6.029,-0.073,0.038,0.037,103.0,104.0,102.0,13.4,1505.2,323.4,-0.8,1.8,2470.273,13.29,0.082,297.5
2022-04-03T03:46:03,42.805,6.029,-0.05,0.005,0.024,104.0,104.0,102.0,13.3,1505.2,322.0,-0.7,1.8,2470.237,13.29,0.05,275.7
2022-04-03T03:49:03,42.805,6.029,-0.044,0.025,0.015,102.0,105.0,101.0,13.3,1505.2,332.5,-0.8,1.8,2470.247,13.29,0.05,299.6
2022-04-03T03:52:03,42.805,6.029,-0.035,0.023,-0.001,103.0,104.0,102.0,13.3,1505.2,325.5,-0.7,1.8,2470.226,13.29,0.041,303.3
2022-04-03T03:55:03,42.805,6.029,-0.048,0.004,0.0,103.0,104.0,102.0,13.4,1505.2,323.2,-0.7,1.8,2470.259,13.29,0.048,274.8
2022-04-03T03:58:03,42.805,6.029,-0.051,0.01,0.003,104.0,103.0,102.0,13.4,1505.2,326.6,-0.8,1.8,2470.281,13.29,0.051,281.1
2022-04-03T04:04:03,42.805,6.029,-0.037,0.01,-0.02,105.0,103.0,101.0,13.4,1505.2,327.6,-0.7,1.8,2470.293,13.28,0.038,285.1
2022-04-03T04:07:03,42.805,6.029,-0.023,0.008,0.005,105.0,103.0,102.0,13.4,1505.2,332.3,-0.8,1.8,2470.285,13.28,0.024,289.2
2022-04-03T04:10:03,42.805,6.029,-0.053,0.008,0.025,103.0,105.0,102.0,13.4,1505.2,329.1,-0.8,1.8,2470.323,13.28,0.053,278.6
2022-04-03T04:13:03,42.805,6.029,-0.037,0.025,0.012,105.0,104.0,102.0,13.3,1505.2,332.7,-0.7,1.8,2470.286,13.29,0.044,304.0
2022-04-03T04:16:03,42.805,6.029,-0.047,0.019,-0.019,103.0,103.0,103.0,13.3,1505.2,332.5,-0.8,1.8,2470.35,13.29,0.05,292.0
2022-04-03T04:19:03,42.805,6.029,-0.037,0.014,0.02,103.0,104.0,102.0,13.4,1505.2,332.7,-0.8,1.8,2470.35,13.29,0.039,290.7
2022-04-03T04:22:03,42.805,6.029,-0.051,0.008,-0.008,103.0,103.0,102.0,13.3,1505.2,324.5,-0.7,1.8,2470.333,13.29,0.051,278.9
2022-04-03T04:25:03,42.805,6.029,-0.061,-0.001,0.003,105.0,104.0,102.0,13.4,1505.2,322.5,-0.8,1.8,2470.354,13.29,0.061,269.1
2022-04-03T04:28:03,42.805,6.029,-0.039,-0.002,0.024,103.0,103.0,102.0,13.3,1505.2,327.9,-0.8,1.8,2470.319,13.29,0.039,267.1
2022-04-03T04:31:03,42.805,6.029,-0.054,0.014,0.025,104.0,104.0,101.0,13.4,1505.2,325.3,-0.7,1.8,2470.34,13.29,0.055,284.5
2022-04-03T04:34:03,42.805,6.029,-0.059,0.014,0.023,104.0,104.0,102.0,13.3,1505.2,325.8,-0.8,1.8,2470.345,13.29,0.06,283.3
2022-04-03T04:37:03,42.805,6.029,-0.029,0.016,0.009,103.0,104.0,101.0,13.4,1505.2,330.0,-0.8,1.8,2470.309,13.29,0.033,298.9
2022-04-03T04:40:03,42.805,6.029,-0.044,0.023,0.035,104.0,102.0,102.0,13.3,1505.2,330.6,-0.8,1.8,2470.266,13.29,0.049,297.6
2022-04-03T04:43:03,42.805,6.029,-0.021,-0.004,0.007,103.0,104.0,100.0,13.4,1505.2,330.7,-0.7,1.8,2470.302,13.29,0.021,259.2
2022-04-03T04:46:03,42.805,6.029,-0.029,0.005,0.031,107.0,105.0,101.0,13.4,1505.2,327.7,-0.8,1.8,2470.284,13.29,0.029,279.8
2022-04-03T04:49:03,42.805,6.029,-0.046,0.015,0.01,104.0,103.0,102.0,13.4,1505.2,328.9,-0.8,1.8,2470.294,13.29,0.048,288.1
2022-04-03T04:52:03,42.805,6.029,-0.056,0.024,0.024,104.0,103.0,102.0,13.3,1505.2,327.9,-0.7,1.8,2470.301,13.29,0.06,293.2
2022-04-03T04:55:03,42.805,6.029,-0.037,0.019,-0.008,103.0,104.0,102.0,13.4,1505.2,326.7,-0.8,1.8,2470.288,13.29,0.041,297.2
2022-04-03T04:58:03,42.805,6.029,-0.039,0.029,0.008,105.0,103.0,102.0,13.4,1505.2,325.7,-0.7,1.8,2470.322,13.29,0.048,306.6
2022-04-03T05:04:03,42.805,6.029,-0.031,0.009,0.011,103.0,104.0,103.0,13.3,1505.2,326.6,-0.7,1.8,2470.369,13.28,0.032,286.2
2022-04-03T05:07:03,42.805,6.029,-0.014,0.0,-0.031,105.0,105.0,103.0,13.4,1505.2,323.0,-0.8,1.8,2470.331,13.28,0.014,270.0
2022-04-03T05:10:03,42.805,6.029,-0.04,0.008,0.014,104.0,104.0,103.0,13.4,1505.2,329.6,-0.7,1.8,2470.38,13.29,0.04,281.3
2022-04-03T05:13:03,42.805,6.029,-0.043,0.017,0.0,105.0,103.0,102.0,13.4,1505.2,330.0,-0.8,1.8,2470.375,13.29,0.046,291.6
2022-04-03T05:16:03,42.805,6.029,-0.052,0.02,0.032,102.0,104.0,102.0,13.4,1505.2,323.8,-0.8,1.8,2470.419,13.29,0.055,291.0
2022-04-03T05:19:03,42.805,6.029,-0.022,0.007,0.012,102.0,103.0,102.0,13.4,1505.2,325.5,-0.7,1.8,2470.402,13.29,0.023,287.6
2022-04-03T05:22:03,42.805,6.029,-0.033,0.0,-0.018,104.0,104.0,102.0,13.4,1505.2,325.8,-0.7,1.8,2470.346,13.29,0.033,270.0
2022-04-03T05:25:03,42.805,6.029,-0.041,0.019,0.005,105.0,104.0,102.0,13.4,1505.2,330.4,-0.8,1.8,2470.395,13.29,0.045,294.9
2022-04-03T05:28:03,42.805,6.029,-0.03,0.005,0.007,104.0,102.0,102.0,13.4,1505.2,324.3,-0.7,1.8,2470.375,13.29,0.03,279.5
2022-04-03T05:31:03,42.805,6.029,-0.019,0.014,0.0,105.0,105.0,102.0,13.4,1505.2,327.5,-0.8,1.8,2470.394,13.29,0.023,306.4
2022-04-03T05:34:03,42.805,6.029,-0.032,0.01,0.014,104.0,105.0,101.0,13.3,1505.2,326.4,-0.7,1.8,2470.424,13.29,0.033,287.4
2022-04-03T05:37:03,42.805,6.029,-0.023,0.025,-0.003,103.0,103.0,103.0,13.3,1505.2,327.3,-0.7,1.8,2470.36,13.29,0.033,317.4
2022-04-03T05:40:03,42.805,6.029,-0.031,0.021,0.012,104.0,104.0,101.0,13.4,1505.2,330.1,-0.8,1.8,2470.347,13.29,0.037,304.1
2022-04-03T05:43:03,42.805,6.029,-0.029,0.014,-0.001,104.0,104.0,102.0,13.4,1505.2,327.4,-0.8,1.8,2470.368,13.29,0.032,295.8
2022-04-03T05:46:03,42.805,6.029,-0.045,0.025,-0.002,104.0,104.0,101.0,13.3,1505.2,332.7,-0.8,1.8,2470.387,13.29,0.051,299.1
2022-04-03T05:49:03,42.805,6.029,-0.035,0.018,0.025,104.0,104.0,101.0,13.4,1505.2,329.7,-0.8,1.8,2470.382,13.29,0.039,297.2
2022-04-03T05:52:03,42.805,6.029,-0.034,0.001,-0.007,104.0,104.0,102.0,13.3,1505.2,325.2,-0.8,1.8,2470.373,13.29,0.034,271.7
2022-04-03T05:55:03,42.805,6.029,-0.052,0.012,0.019,103.0,103.0,102.0,13.3,1505.2,325.0,-0.8,1.8,2470.371,13.29,0.053,283.0
2022-04-03T05:58:03,42.805,6.029,-0.044,0.024,0.043,103.0,104.0,102.0,13.3,1505.2,330.3,-0.8,1.8,2470.393,13.29,0.05,298.6
2022-04-03T06:04:03,42.805,6.029,-0.034,0.038,0.023,104.0,103.0,102.0,13.4,1505.2,323.4,-0.8,1.8,2470.387,13.28,0.05,318.2
2022-04-03T06:07:03,42.805,6.029,-0.035,0.019,0.024,103.0,104.0,101.0,13.3,1505.2,330.5,-0.7,1.8,2470.378,13.28,0.039,298.5
2022-04-03T06:10:03,42.805,6.029,-0.057,0.023,0.019,103.0,104.0,102.0,13.4,1505.2,322.2,-0.7,1.8,2470.351,13.29,0.061,292.0
2022-04-03T06:13:03,42.805,6.029,-0.054,0.024,0.019,103.0,104.0,102.0,13.3,1505.2,328.7,-0.8,1.8,2470.375,13.29,0.059,294.0
2022-04-03T06:16:03,42.805,6.029,-0.04,0.008,0.033,103.0,102.0,102.0,13.4,1505.2,327.4,-0.8,1.8,2470.378,13.29,0.04,281.3
2022-04-03T06:19:03,42.805,6.029,-0.056,0.014,0.039,103.0,104.0,102.0,13.3,1505.2,324.4,-0.7,1.8,2470.365,13.29,0.057,284.0
2022-04-03T06:22:03,42.805,6.029,-0.033,0.012,0.006,103.0,103.0,101.0,13.4,1505.2,323.9,-0.8,1.8,2470.388,13.29,0.035,290.0
2022-04-03T06:25:03,42.805,6.029,-0.04,0.027,0.003,104.0,103.0,101.0,13.4,1505.2,323.6,-0.7,1.8,2470.377,13.29,0.048,304.0
2022-04-03T06:28:03,42.805,6.029,-0.031,0.036,0.008,103.0,102.0,101.0,13.4,1505.2,329.9,-0.7,1.8,2470.383,13.29,0.047,319.3
2022-04-03T06:31:03,42.805,6.029,-0.031,0.023,0.001,104.0,102.0,102.0,13.4,1505.2,330.2,-0.8,1.8,2470.448,13.29,0.038,306.6
2022-04-03T06:34:03,42.805,6.029,-0.04,0.005,0.0,103.0,102.0,102.0,13.4,1505.2,324.1,-0.8,1.8,2470.419,13.29,0.04,277.1
2022-04-03T06:37:03,42.805,6.029,-0.04,0.014,0.023,102.0,102.0,101.0,13.4,1505.2,328.4,-0.7,1.8,2470.412,13.29,0.042,289.3
2022-04-03T06:40:03,42.805,6.029,-0.046,0.024,0.013,101.0,104.0,103.0,13.3,1505.2,329.4,-0.8,1.8,2470.476,13.29,0.051,297.6
2022-04-03T06:43:03,42.805,6.029,-0.031,0.014,0.002,105.0,103.0,101.0,13.4,1505.2,325.9,-0.7,1.8,2470.451,13.29,0.034,294.3
2022-04-03T06:46:03,42.805,6.029,-0.053,0.016,-0.025,103.0,103.0,101.0,13.3,1505.2,332.5,-0.8,1.8,2470.433,13.29,0.055,286.8
2022-04-03T06:49:03,42.805,6.029,-0.041,0.006,0.005,103.0,102.0,101.0,13.4,1505.2,326.1,-0.8,1.8,2470.436,13.29,0.041,278.3
2022-04-03T06:52:03,42.805,6.029,-0.031,0.008,-0.007,104.0,103.0,102.0,13.3,1505.2,330.2,-0.7,1.8,2470.443,13.29,0.032,284.5
2022-04-03T06:55:03,42.805,6.029,-0.033,0.008,-0.003,103.0,104.0,102.0,13.4,1505.2,322.9,-0.7,1.8,2470.435,13.29,0.033,283.6
2022-04-03T06:58:03,42.805,6.029,-0.039,0.011,0.012,104.0,103.0,101.0,13.4,1505.2,329.2,-0.8,1.8,2470.455,13.29,0.04,285.7
2022-04-03T07:04:03,42.805,6.029,-0.046,0.001,-0.021,102.0,102.0,101.0,13.4,1505.2,329.2,-0.8,1.8,2470.467,13.28,0.046,271.2
2022-04-03T07:07:03,42.805,6.029,-0.065,0.013,-0.009,103.0,104.0,101.0,13.3,1505.2,323.9,-0.7,1.8,2470.498,13.28,0.066,281.3
2022-04-03T07:10:03,42.805,6.029,-0.034,0.005,0.002,101.0,103.0,103.0,13.4,1505.2,327.1,-0.8,1.9,2470.498,13.28,0.034,278.4
2022-04-03T07:13:03,42.805,6.029,-0.058,-0.001,-0.012,103.0,103.0,101.0,13.3,1505.2,326.7,-0.8,1.8,2470.484,13.29,0.058,269.0
2022-04-03T07:16:03,42.805,6.029,-0.056,-0.001,-0.007,103.0,104.0,101.0,13.4,1505.2,327.8,-0.8,1.9,2470.469,13.29,0.056,269.0
2022-04-03T07:19:03,42.805,6.029,-0.028,0.008,0.008,104.0,102.0,102.0,13.3,1505.2,326.5,-0.7,1.8,2470.491,13.29,0.029,285.9
2022-04-03T07:22:03,42.805,6.029,-0.034,0.037,0.038,104.0,102.0,101.0,13.4,1505.2,331.1,-0.7,1.8,2470.492,13.29,0.05,317.4
2022-04-03T07:25:03,42.805,6.029,-0.048,0.004,0.006,102.0,103.0,101.0,13.4,1505.2,329.0,-0.8,1.8,2470.496,13.29,0.048,274.8
2022-04-03T07:28:03,42.805,6.029,-0.016,0.024,0.04,102.0,103.0,101.0,13.4,1505.2,331.2,-0.8,1.8,2470.491,13.29,0.028,326.3
2022-04-03T07:31:03,42.805,6.029,-0.045,0.013,0.019,102.0,103.0,101.0,13.4,1505.2,322.1,-0.7,1.8,2470.471,13.29,0.046,286.1
2022-04-03T07:34:03,42.805,6.029,-0.034,0.013,0.022,103.0,104.0,101.0,13.4,1505.2,325.3,-0.8,1.8,2470.516,13.29,0.036,290.9
2022-04-03T07:37:03,42.805,6.029,-0.055,0.017,0.026,102.0,102.0,101.0,13.4,1505.2,332.0,-0.7,1.8,2470.528,13.29,0.057,287.2
2022-04-03T07:40:03,42.805,6.029,-0.042,0.011,-0.007,104.0,102.0,101.0,13.4,1505.2,330.9,-0.7,1.8,2470.502,13.29,0.043,284.7
2022-04-03T07:43:03,42.805,6.029,-0.041,0.039,0.059,102.0,103.0,101.0,13.4,1505.2,324.1,-0.8,1.8,2470.491,13.29,0.056,313.6
2022-04-03T07:46:03,42.805,6.029,-0.039,0.015,-0.013,103.0,102.0,100.0,13.4,1505.2,329.8,-0.8,1.8,2470.541,13.29,0.041,291.0
2022-04-03T07:49:03,42.805,6.029,-0.015,0.0,0.025,103.0,103.0,101.0,13.4,1505.2,323.2,-0.7,1.8,2470.559,13.29,0.015,270.0
2022-04-03T07:52:03,42.805,6.029,-0.051,0.008,-0.005,103.0,102.0,101.0,13.4,1505.2,326.4,-0.7,1.8,2470.557,13.29,0.051,278.9
2022-04-03T07:55:03,42.805,6.029,-0.044,0.006,-0.005,103.0,102.0,101.0,13.3,1505.2,332.0,-0.7,1.8,2470.595,13.29,0.044,277.8
2022-04-03T07:58:03,42.805,6.029,-0.053,0.009,0.026,103.0,102.0,100.0,13.3,1505.2,325.2,-0.7,1.8,2470.6,13.29,0.053,279.6
2022-04-03T08:04:03,42.805,6.029,-0.044,0.001,-0.032,101.0,102.0,101.0,13.4,1505.2,326.1,-0.7,1.8,2470.657,13.28,0.044,271.3
2022-04-03T08:07:03,42.805,6.029,-0.023,0.0,0.013,103.0,102.0,101.0,13.4,1505.2,328.1,-0.7,1.8,2470.633,13.28,0.023,270.0
2022-04-03T08:10:03,42.805,6.029,-0.053,0.018,0.023,101.0,102.0,101.0,13.4,1505.2,324.5,-0.8,1.8,2470.694,13.29,0.055,288.8
2022-04-03T08:13:03,42.805,6.029,-0.026,0.014,0.031,102.0,103.0,101.0,13.3,1505.2,325.9,-0.7,1.8,2470.674,13.29,0.029,298.3
2022-04-03T08:16:03,42.805,6.029,-0.056,0.0,0.006,102.0,103.0,101.0,13.4,1505.2,327.6,-0.7,1.8,2470.66,13.29,0.056,270.0
2022-04-03T08:19:03,42.805,6.029,-0.035,0.008,0.021,101.0,102.0,101.0,13.4,1505.2,327.8,-0.7,1.8,2470.706,13.29,0.035,282.9
2022-04-03T08:22:03,42.805,6.029,-0.037,0.006,0.011,102.0,103.0,100.0,13.4,1505.2,328.2,-0.7,1.8,2470.65,13.29,0.037,279.2
2022-04-03T08:25:03,42.805,6.029,-0.022,0.009,0.047,102.0,102.0,101.0,13.4,1505.2,323.2,-0.8,1.8,2470.691,13.29,0.023,292.2
2022-04-03T08:28:03,42.805,6.029,-0.018,0.006,0.023,104.0,101.0,101.0,13.3,1505.2,328.7,-0.8,1.8,2470.696,13.29,0.018,288.4
2022-04-03T08:31:03,42.805,6.029,-0.059,0.026,0.005,103.0,102.0,103.0,13.4,1505.2,330.0,-0.7,1.8,2470.649,13.29,0.064,293.8
2022-04-03T08:34:03,42.805,6.029,-0.055,0.012,-0.011,102.0,102.0,100.0,13.3,1505.2,325.9,-0.7,1.8,2470.702,13.29,0.056,282.3
2022-04-03T08:37:03,42.805,6.029,-0.043,-0.002,-0.009,102.0,103.0,101.0,13.4,1505.2,323.2,-0.7,1.8,2470.707,13.29,0.043,267.3
2022-04-03T08:40:03,42.805,6.029,-0.041,0.016,0.03,102.0,102.0,101.0,13.4,1505.2,332.0,-0.8,1.8,2470.73,13.29,0.044,291.3
2022-04-03T08:43:03,42.805,6.029,-0.045,0.024,0.0,102.0,101.0,101.0,13.4,1505.2,328.9,-0.7,1.8,2470.73,13.29,0.051,298.1
2022-04-03T08:46:03,42.805,6.029,-0.058,0.014,0.026,101.0,101.0,102.0,13.4,1505.2,329.8,-0.8,1.8,2470.728,13.29,0.059,283.6
2022-04-03T08:49:03,42.805,6.029,-0.05,0.01,-0.002,101.0,102.0,101.0,13.3,1505.2,332.2,-0.8,1.8,2470.704,13.29,0.05,281.3
2022-04-03T08:52:03,42.805,6.029,-0.03,0.032,0.034,103.0,101.0,101.0,13.3,1505.2,330.9,-0.8,1.8,2470.7,13.29,0.043,316.9
2022-04-03T08:55:03,42.805,6.029,-0.043,0.018,-0.006,102.0,103.0,100.0,13.3,1505.2,326.2,-0.8,1.8,2470.734,13.29,0.046,292.7
2022-04-03T08:58:03,42.805,6.029,-0.033,0.022,0.032,103.0,102.0,100.0,13.3,1505.2,330.2,-0.7,1.8,2470.76,13.29,0.039,303.7
2022-04-03T09:04:03,42.805,6.029,-0.049,0.005,0.04,101.0,102.0,100.0,13.4,1505.2,322.7,-0.8,1.8,2470.768,13.28,0.049,275.8
2022-04-03T09:07:03,42.805,6.029,-0.046,0.002,0.003,103.0,102.0,101.0,13.4,1505.2,329.4,-0.8,1.8,2470.753,13.28,0.046,272.5
2022-04-03T09:10:03,42.805,6.029,-0.038,0.005,0.008,101.0,101.0,102.0,13.3,1505.2,322.5,-0.8,1.8,2470.716,13.29,0.038,277.5
2022-04-03T09:13:03,42.805,6.029,-0.068,0.031,0.007,102.0,102.0,102.0,13.3,1505.2,326.4,-0.8,1.9,2470.738,13.29,0.074,294.5
2022-04-03T09:16:03,42.805,6.029,-0.045,0.031,0.009,102.0,102.0,101.0,13.4,1505.2,327.6,-0.7,1.8,2470.747,13.29,0.054,304.6
2022-04-03T09:19:03,42.805,6.029,-0.045,0.028,0.038,102.0,102.0,100.0,13.4,1505.2,325.1,-0.7,1.8,2470.753,13.29,0.053,301.9
2022-04-03T09:22:03,42.805,6.029,-0.057,0.022,0.004,102.0,102.0,101.0,13.4,1505.2,326.1,-0.7,1.8,2470.752,13.29,0.061,291.1
2022-04-03T09:25:03,42.805,6.029,-0.014,0.013,0.012,101.0,102.0,101.0,13.3,1505.2,328.6,-0.7,1.8,2470.707,13.29,0.019,312.9
2022-04-03T09:28:03,42.805,6.029,-0.035,0.009,0.005,102.0,104.0,101.0,13.4,1505.2,323.4,-0.7,1.8,2470.73,13.29,0.036,284.4
2022-04-03T09:31:03,42.805,6.029,-0.048,0.016,0.019,102.0,103.0,101.0,13.3,1505.2,325.1,-0.8,1.8,2470.756,13.29,0.05,288.4
2022-04-03T09:34:03,42.805,6.029,-0.052,0.01,-0.005,103.0,101.0,101.0,13.3,1505.2,322.5,-0.7,1.8,2470.73,13.29,0.052,280.9
2022-04-03T09:37:03,42.805,6.029,-0.035,0.01,-0.017,103.0,104.0,99.0,13.3,1505.2,330.0,-0.7,1.8,2470.771,13.29,0.036,285.9
2022-04-03T09:40:03,42.805,6.029,-0.045,0.037,0.032,102.0,102.0,100.0,13.4,1505.2,329.5,-0.7,1.9,2470.735,13.29,0.058,309.4
2022-04-03T09:43:03,42.805,6.029,-0.067,0.003,0.013,101.0,102.0,101.0,13.3,1505.2,325.4,-0.8,1.8,2470.742,13.29,0.067,272.6
2022-04-03T09:46:03,42.805,6.029,-0.045,-0.003,0.002,102.0,102.0,101.0,13.4,1505.2,329.6,-0.7,1.8,2470.802,13.29,0.045,266.2
2022-04-03T09:49:03,42.805,6.029,-0.035,-0.001,0.0,101.0,102.0,101.0,13.4,1505.2,322.9,-0.7,1.8,2470.738,13.29,0.035,268.4
2022-04-03T09:52:03,42.805,6.029,-0.033,0.0,0.002,102.0,103.0,101.0,13.4,1505.2,325.9,-0.7,1.8,2470.763,13.29,0.033,270.0
2022-04-03T09:55:03,42.805,6.029,-0.05,0.0,-0.019,102.0,103.0,100.0,13.4,1505.2,329.2,-0.7,1.8,2470.753,13.29,0.05,270.0
2022-04-03T09:58:03,42.805,6.029,-0.013,0.012,0.006,104.0,102.0,102.0,13.4,1505.2,326.8,-0.8,1.8,2470.797,13.29,0.017,312.7